Location: Barcelona
(41.3830°N, 2.1830°E)
Time: 07:55:13
(UTC+01:00)

ISS - Visible Passes

Search period start: 20 March 2019 00:00
Search period end: 30 March 2019 00:00
Orbit: 406 x 411 km, 51.6° (Epoch: 20 March)

Date Brightness Start Highest point End Pass type
(mag) Time Alt. Az. Time Alt. Az. Time Alt. Az.
20 Mar -1.6 19:42:23 10° SE 19:43:18 11° SE 19:43:58 10° ESE visible
20 Mar -1.1 21:16:06 10° SW 21:16:47 15° SW 21:16:47 15° SW visible
21 Mar -3.7 20:25:14 10° SW 20:28:25 51° SE 20:28:54 46° ESE visible
22 Mar -2.7 19:34:41 10° SSW 19:37:31 27° SE 19:40:22 10° ENE visible
22 Mar -2.3 21:10:53 10° W 21:13:34 36° NW 21:13:34 36° NW visible
23 Mar -3.4 20:19:38 10° WSW 20:22:53 63° NNW 20:25:13 18° NE visible
23 Mar -0.3 21:57:38 10° WNW 21:58:00 12° NW 21:58:00 12° NW visible
24 Mar -1.7 21:06:01 10° WNW 21:08:41 22° NNW 21:09:28 20° N visible
25 Mar -2.1 20:14:30 10° W 20:17:28 31° NNW 20:20:27 10° NE visible
25 Mar -0.5 21:52:54 10° NW 21:53:32 12° NNW 21:53:32 12° NNW visible
26 Mar -1.2 21:01:18 10° NW 21:03:28 16° NNW 21:04:43 14° NNE visible
27 Mar -1.4 20:09:38 10° WNW 20:12:08 20° NNW 20:14:38 10° NNE visible
27 Mar -0.6 21:47:48 10° NNW 21:48:32 12° NNW 21:48:32 12° NNW visible
28 Mar -1.2 20:56:26 10° NW 20:58:15 14° N 20:59:33 12° NNE visible
29 Mar -1.1 20:04:50 10° NW 20:06:52 15° N 20:08:53 10° NNE visible
29 Mar -0.9 21:42:12 10° NNW 21:43:14 14° NNW 21:43:14 14° NNW visible
